Regional Weather Roundup
Issued by NWS Mobile, AL

Home | Current Version | Previous Version | Text Only | Print | Product List | Glossary On
Versions: 1 2 3 4 5 6 7 8 9 10 11 12 13 14 15 16 17 18 19 20 21 22 23 24 25 26 27 28 29 30 31 32 33 34 35 36 37 38 39 40 41 42 43 44 45 46 47 48 49 50
000
ASUS44 KMOB 312310
RWRMOB
REGIONAL WEATHER ROUNDUP
NATIONAL WEATHER SERVICE MOBILE AL
500 PM CST SAT JAN 31 2015

NOTE: "FAIR" INDICATES FEW OR NO CLOUDS BELOW 12,000 FEET WITH NO
      SIGNIFICANT WEATHER AND/OR OBSTRUCTIONS TO VISIBILITY.

  * THESE STATIONS ARE PART OF THE UNIVERSITY OF SOUTH ALABAMA
    MESONET AND ARE NOT UNDER NWS OR FAA QUALITY CONTROL.

ALZ061>064-010000-
COASTAL ALABAMA

CITY           SKY/WX    TMP DP  RH WIND       PRES   REMARKS
MOBILE REG APT PTCLDY    56  42  59 SE9       30.22F
BROOKLEY FIELD PTCLDY    56  46  69 SE3       30.24F
USA CAMPUS*    NOT AVBL
DOG RIVER*     NOT AVBL


CITY           SKY/WX    TMP DP  RH WIND       PRES   REMARKS
MOUNT VERNON*  NOT AVBL
SARALAND*      NOT AVBL
BAY MINETTE*   NOT AVBL
LOXLEY*        NOT AVBL
ROBERTSDALE*   NOT AVBL
FAIRHOPE*        N/A     55  39  54 E10       30.22S
ELBERTA*         N/A     55  45  67 E3        30.23S
FOLEY*         NOT AVBL
GRAND BAY*     NOT AVBL
DAUPHIN ISLND* NOT AVBL
BON SCOUR NWR* NOT AVBL
GULF SHORES    CLEAR     56  46  68 E8        30.23F

$$

ALZ051>060-010000-
INTERIOR SOUTHWEST AND SOUTH CENTRAL ALABAMA

CITY           SKY/WX    TMP DP  RH WIND       PRES   REMARKS
GREENVILLE     PTCLDY    59  23  25 E5        30.24S
EVERGREEN      PTCLDY    58  28  32 E3        30.24S
CASTLEBERRY*   NOT AVBL
ATMORE*          N/A     59  34  38 SE5       30.24S
DIXIE*           N/A     57  36  44 CALM      30.21S
ANDALUSIA/OPP  MOCLDY    60  29  30 E6        30.24S
ANDALUSIA*       N/A    N/A N/A N/A E5        30.23S
FLORALA APT    MOCLDY    60  28  29 E3        30.26S
FLORALA*         N/A    N/A N/A N/A E3        30.22S

$$

FLZ001>006-010000-
WESTERN FLORIDA PANHANDLE

CITY           SKY/WX    TMP DP  RH WIND       PRES   REMARKS
PENSACOLA      PTCLDY    55  43  63 SE8       30.24S
NAS PENSACOLA  MOCLDY    57  45  64 E10       30.24S
MILTON         CLEAR     54  36  50 S7        30.23S
WHTNG S FIELD  CLEAR     56  38  50 S6        30.24S


CITY           SKY/WX    TMP DP  RH WIND       PRES   REMARKS
WALNUT HILL*   NOT AVBL
JAY*           NOT AVBL
DUKE FIELD     PTCLDY    58  36  42 S5        30.23F
CRESTVIEW      PTCLDY    61  35  37 S3        30.25S
VALPARAISO     MOCLDY    56  40  53 S5        30.24S
DESTIN         PTCLDY    57  38  48 SE6       30.24F

$$

MSZ076-079-010000-
INTERIOR SOUTHEAST MISSISSIPPI

CITY           SKY/WX    TMP DP  RH WIND       PRES   REMARKS
LEAKESVILLE*   NOT AVBL
AGRICOLA*      NOT AVBL

$$

MARINE OBSERVATIONS

STATION/POSITION TIME  TEMP    WIND        PRES    WAVE
                       AIR SEA DIR/SP/G            HT/PER
                 (UTC) (F)     (DEG/KT/KT) (MB)    (FT/S)
PASCAGOULA       2300   57      90/  8/ 13 1022.9S
PETIT BOIS ISLND 2300   58      90/ 13/ 19 1023.1F
GRAND BAY        2200   56     100/ 12     1024.0S
KATRINA CUT      2200   56     100/ 15     1023.7F
CEDAR POINT      2200   56      90/ 11     1024.4S
E DAUPHIN ISLAND 2156   57      90/ 12/ 14 1023.5F
MIDDLE BAY LIGHT 2200   56     110/ 10     1022.7F
USCG MOBILE BAY  2300   56 54  170/  4/  6 1022.4F
STATE DOCKS      2300   55 51              1023.2F
MEAHER PARK      2200   55     200/  5     1024.0R
WEEKS BAY        2200   59                   N/A
FORT MORGAN      2300   57     110/ 15/ 19 1022.7F
12 S ORANGE BCH  2300   59 62  100/ 12/ 14 1023.0F   3/ 6
PENSACOLA BAY    2300   61 57  140/  2/  5 1024.3F
64 S DAUPHIN ISL 2246   62 69  100/ 19/ 23 1022.2F   5/ 7

$$

SELECTED LOCATIONS ACROSS THE REGION

CITY           SKY/WX    TMP DP  RH WIND       PRES   REMARKS
NEW ORLEANS    CLOUDY    58  48  69 E9        30.18S
GULFPORT       MOCLDY    57  46  66 E13       30.21S
PASCAGOULA AP  PTCLDY    56  44  64 SE7       30.22S
PASCAGOULA*    NOT AVBL
HATTIESBURG    CLOUDY    58  33  39 SE5       30.21S
LAUREL         CLOUDY    57  27  30 SE6       30.21F
MERIDIAN       CLOUDY    57  21  24 SE7       30.21S
JACKSON        MOCLDY    58  27  30 E5        30.18F
MONTGOMERY     MOCLDY    57  24  28 CALM      30.26S
TROY           MOCLDY    57  23  26 SE6       30.26S
KINSTON*       NOT AVBL
GENEVA*        NOT AVBL
ASHFORD*         N/A    N/A N/A N/A E5        30.23S
DOTHAN         PTCLDY    57  27  31 E3        30.29S
PANAMA CITY    PTCLDY    56  42  59 SE5       30.24S

$$




USA.gov is the U.S. government's official web portal to all federal, state and local government web resources and services.